EXP784 RPVM-RPVE

Flight info

Callsign EXP784
Flight time N/A
Altitude 26000
Route KEVAN1Q KEVAN TR2 BCD TR8 KLO KLO7A
Aircraft A20N/M-SDE2E3FGHIRWXY/LB1

Departure

Time 2026-05-07 14:49
Airport Mactan Cebu International Airport (RPVM)

Arrival

Time N/A
Airport Godofredo P. Ramos Airport (RPVE)
Time Latitude Longitude Altitude Speed Heading
2026-05-07 14:35 10.31224 123.97798 38 ft 0 kts 223°
2026-05-07 14:39 10.31224 123.97797 39 ft 0 kts 223°
2026-05-07 14:40 10.31226 123.97799 39 ft 0 kts 234°
2026-05-07 14:40 10.31228 123.97804 39 ft 0 kts 239°
2026-05-07 14:40 10.31236 123.97816 39 ft 2 kts 234°
2026-05-07 14:40 10.31245 123.97828 40 ft 2 kts 234°
2026-05-07 14:41 10.31254 123.97840 40 ft 2 kts 234°
2026-05-07 14:41 10.31263 123.97852 40 ft 2 kts 234°
2026-05-07 14:41 10.31271 123.97865 40 ft 2 kts 234°
2026-05-07 14:41 10.31280 123.97877 39 ft 2 kts 234°
2026-05-07 14:42 10.31289 123.97890 39 ft 2 kts 234°
2026-05-07 14:42 10.31297 123.97901 39 ft 2 kts 234°
2026-05-07 14:42 10.31303 123.97910 39 ft 0 kts 234°
2026-05-07 14:42 10.31306 123.97914 39 ft 0 kts 194°
2026-05-07 14:43 10.31311 123.97914 39 ft 0 kts 143°
2026-05-07 14:43 10.31314 123.97910 40 ft 1 kts 132°
2026-05-07 14:43 10.31316 123.97908 40 ft 0 kts 134°
2026-05-07 14:45 10.31310 123.97914 39 ft 2 kts 134°
2026-05-07 14:45 10.31288 123.97936 38 ft 6 kts 134°
2026-05-07 14:46 10.31248 123.97977 37 ft 10 kts 141°
2026-05-07 14:46 10.31177 123.97957 36 ft 13 kts 225°
2026-05-07 14:46 10.31104 123.97882 36 ft 16 kts 225°
2026-05-07 14:46 10.31017 123.97796 35 ft 18 kts 224°
2026-05-07 14:47 10.30918 123.97697 33 ft 21 kts 222°
2026-05-07 14:47 10.30805 123.97582 29 ft 24 kts 225°
2026-05-07 14:47 10.30689 123.97466 25 ft 24 kts 225°
2026-05-07 14:47 10.30568 123.97344 25 ft 24 kts 223°
2026-05-07 14:48 10.30448 123.97224 24 ft 23 kts 225°
2026-05-07 14:48 10.30350 123.97163 22 ft 13 kts 161°
2026-05-07 14:48 10.30311 123.97218 22 ft 8 kts 68°
2026-05-07 14:48 10.30379 123.97295 23 ft 37 kts 44°
2026-05-07 14:49 10.30758 123.97670 30 ft 110 kts 45°
2026-05-07 14:49 10.31424 123.98342 152 ft 153 kts 44°
2026-05-07 14:49 10.32170 123.99123 723 ft 158 kts 45°
2026-05-07 14:49 10.32928 123.99918 1451 ft 157 kts 44°
2026-05-07 14:50 10.33688 124.00698 2069 ft 160 kts 43°
2026-05-07 14:50 10.34501 124.01510 2520 ft 171 kts 38°
2026-05-07 14:50 10.35645 124.01914 2807 ft 189 kts 353°
2026-05-07 14:50 10.36876 124.01340 3133 ft 211 kts 326°
2026-05-07 14:51 10.38109 124.00444 3544 ft 231 kts 326°
2026-05-07 14:51 10.39485 123.99471 4022 ft 248 kts 327°
2026-05-07 14:51 10.40954 123.98468 4560 ft 263 kts 327°
2026-05-07 14:51 10.42484 123.97445 5370 ft 267 kts 327°
2026-05-07 14:52 10.44034 123.96420 6232 ft 269 kts 327°
2026-05-07 14:52 10.45605 123.95390 7067 ft 272 kts 327°
2026-05-07 14:52 10.47187 123.94354 7890 ft 275 kts 327°
2026-05-07 14:52 10.48784 123.93311 8698 ft 278 kts 327°
2026-05-07 14:53 10.50414 123.92249 9496 ft 281 kts 326°
2026-05-07 14:53 10.52065 123.91175 10275 ft 285 kts 326°
2026-05-07 14:53 10.53748 123.90077 10784 ft 298 kts 326°
2026-05-07 14:53 10.55547 123.88901 11136 ft 316 kts 326°
2026-05-07 14:54 10.57400 123.87619 11451 ft 334 kts 318°
2026-05-07 14:54 10.58893 123.85753 11789 ft 348 kts 296°
2026-05-07 14:54 10.59600 123.83430 12425 ft 352 kts 279°
2026-05-07 14:54 10.59941 123.80948 13197 ft 354 kts 277°
2026-05-07 14:55 10.60251 123.78452 13863 ft 359 kts 277°
2026-05-07 14:55 10.60569 123.75964 14518 ft 363 kts 277°
2026-05-07 14:55 10.60905 123.73413 15181 ft 367 kts 277°
2026-05-07 14:55 10.61253 123.70824 15835 ft 371 kts 277°
2026-05-07 14:56 10.61605 123.68226 16468 ft 374 kts 277°
2026-05-07 14:56 10.61964 123.65577 17095 ft 378 kts 277°
2026-05-07 14:56 10.62318 123.62962 17693 ft 382 kts 277°
2026-05-07 14:56 10.62683 123.60271 18284 ft 386 kts 277°
2026-05-07 14:57 10.63052 123.57546 18862 ft 390 kts 277°
2026-05-07 14:57 10.63421 123.54821 19421 ft 393 kts 277°
2026-05-07 14:57 10.63795 123.52058 19971 ft 397 kts 277°
2026-05-07 14:57 10.64170 123.49286 20509 ft 400 kts 277°
2026-05-07 14:58 10.64549 123.46489 21043 ft 404 kts 277°
2026-05-07 14:58 10.64932 123.43647 21570 ft 407 kts 277°
2026-05-07 14:58 10.65320 123.40775 22088 ft 411 kts 277°
2026-05-07 14:58 10.65707 123.37911 22592 ft 414 kts 277°
2026-05-07 14:59 10.66096 123.35028 23090 ft 418 kts 277°
2026-05-07 14:59 10.66344 123.33186 23398 ft 420 kts 277°